Menu       Home   X °F

Select another period ( hide this area )

Units Period Custom range Directly to
Metric English Both
Daily Weekly Monthly Yearly
use both date-selectors for a custom range
previous Day
With this date
Daily Summary for Saturday 22 June 2024
Time Temp. ( °F ) Dew pt. ( °F ) Wind ( mph ) From Gust ( mph ) Pressure ( in ) Humid.( % ) Rainrate ( in )
High72.0 62.4 5.0 SW ( 149/384 ) 8.1 29.97 90 15.72
Average62.6 56.5 1.0 Calm #91/238 2.9 29.91 81 20.09
Low55.0 50.5 -   0.0 29.87 67 -
Daily Tabular details for Saturday 22 June 2024
Time Temp. ( °F ) Dew pt. ( °F ) Wind ( mph ) From Gust ( mph ) Pressure ( in ) Humid.( % ) Rainrate ( in )
00:04 58.1 52.0 1.2 West 3.7 29.89 80 -
00:09 58.1 52.0 0.6 West 3.1 29.89 80 -
00:14 57.9 52.0 0.6 SW 2.5 29.89 80 -
00:19 57.9 52.0 0.6 WNW 3.1 29.89 80 -
00:24 57.9 52.0 1.2 West 3.7 29.89 80 -
00:29 58.1 52.0 0.6 WNW 3.1 29.89 80 -
00:34 58.1 52.0 1.9 WNW 3.7 29.89 80 -
00:39 58.1 52.0 1.2 WNW 5.0 29.89 80 -
00:44 58.1 51.6 1.2 WNW 5.0 29.89 79 -
00:49 57.9 51.4 0.6 West 2.5 29.89 79 -
00:54 57.9 51.6 0.6 WSW 2.5 29.89 80 -
00:59 57.7 51.6   Calm 1.9 29.89 80 -
01:04 57.7 51.6   Calm 1.2 29.89 80 -
01:09 57.6 51.4 0.6 WNW 2.5 29.89 80 -
01:14 57.6 51.4 0.6 WNW 2.5 29.89 80 -
01:19 57.7 51.6 0.6 WNW 2.5 29.89 80 -
01:24 57.7 51.6 0.6 WNW 2.5 29.89 80 -
01:29 57.7 51.6 0.6 WSW 3.7 29.89 80 -
01:34 57.7 51.6   Calm 3.7 29.89 80 -
01:39 57.7 51.6 0.6 WNW 2.5 29.89 80 -
01:44 57.6 51.4   Calm 1.9 29.89 80 -
01:49 57.6 51.4   Calm 1.2 29.89 80 -
01:54 57.4 51.3   Calm 1.2 29.89 80 -
01:59 57.0 51.1   Calm   29.89 81 -
02:04 56.8 51.1   Calm   29.89 81 -
02:09 56.7 51.1   Calm   29.89 82 -
02:14 56.5 51.1   Calm   29.89 82 -
02:19 56.1 50.7   Calm   29.89 82 -
02:24 55.9 50.9   Calm   29.89 83 -
02:29 55.8 50.7   Calm   29.89 83 -
02:34 55.8 50.7   Calm   29.89 84 -
02:39 55.6 50.7   Calm   29.89 84 -
02:44 55.2 50.5   Calm   29.89 84 -
02:49 55.2 50.5   Calm   29.89 84 -
02:54 55.0 50.7   Calm   29.88 85 -
02:59 55.0 50.7   Calm   29.88 85 -
03:04 55.0 50.7   Calm   29.88 85 -
03:09 55.0 50.5   Calm   29.88 85 -
03:14 55.0 51.1   Calm   29.88 86 -
03:19 55.2 51.3   Calm   29.88 86 -
03:24 55.6 51.4   Calm   29.88 86 -
03:29 55.6 51.4   Calm   29.87 86 -
03:34 55.8 51.6   Calm   29.87 86 -
03:39 55.9 51.8 0.6 SW 2.5 29.88 86 -
03:44 55.9 51.8 1.9 WSW 3.7 29.88 86 -
03:49 55.9 52.0 2.5 SW 5.0 29.88 86 -
03:54 55.9 52.0 2.5 WSW 5.0 29.88 86 -
03:59 55.9 52.0 2.5 SW 3.7 29.88 86 -
04:04 55.9 52.0 1.2 SW 3.7 29.88 86 -
04:09 55.9 52.0 0.6 WSW 2.5 29.88 86 -
04:14 55.9 52.0   Calm 1.9 29.87 86 -
04:19 55.9 51.8   Calm 1.2 29.88 86 -
04:24 55.9 52.0   Calm 1.2 29.87 86 -
04:29 55.9 52.2 1.2 SW 3.7 29.87 87 -
04:34 56.1 52.3 1.2 SW 3.1 29.87 87 -
04:39 56.1 52.3   Calm   29.87 87 -
04:44 56.1 52.3   Calm   29.87 87 -
04:49 56.3 52.5   Calm   29.87 87 -
04:54 56.5 52.9 1.2 SW 3.1 29.87 88 -
04:59 56.5 53.1 1.2 SW 3.7 29.88 88 -
05:04 56.7 53.1 1.9 SW 3.7 29.88 88 -
05:09 56.7 53.1 1.2 SW 3.7 29.88 88 -
05:14 56.7 53.2 1.2 SW 3.7 29.88 88 -
05:19 56.7 53.2 0.6 SW 3.1 29.88 88 -
05:24 56.8 53.2   Calm 1.9 29.88 88 -
05:29 56.8 53.2 1.2 WSW 3.7 29.88 88 -
05:34 56.8 53.4 0.6 SW 3.7 29.88 88 -
05:39 57.0 53.4 0.6 SW 3.1 29.88 88 -
05:44 57.0 53.6 1.2 SW 6.8 29.88 88 -
05:49 57.0 53.6 1.2 SW 6.8 29.88 88 -
05:54 57.2 53.8 1.2 WSW 5.0 29.88 88 -
05:59 57.4 53.8 1.9 SW 5.0 29.88 88 -
06:04 57.4 54.0 1.9 WSW 5.0 29.88 88 -
06:09 57.6 54.0 0.6 West 3.7 29.88 88 -
06:14 57.6 54.0 1.9 WSW 5.0 29.88 88 -
06:19 57.6 54.1 0.6 SSE 5.0 29.88 88 -
06:24 57.6 54.1 1.2 SW 3.7 29.88 88 -
06:29 57.7 54.1 1.2 WSW 3.1 29.88 88 -
06:34 57.7 54.1 2.5 SW 5.0 29.88 88 -
06:39 57.7 54.1 1.2 WSW 5.0 29.88 88 -
06:44 57.9 54.1 0.6 SW 5.0 29.87 87 -
06:49 57.9 54.1 1.2 SSW 5.0 29.88 87 -
06:54 58.3 54.3 0.6 SW 5.0 29.88 87 -
06:59 58.5 54.7 0.6 South 3.7 29.88 87 -
07:04 58.6 54.7 0.6 WSW 2.5 29.88 87 -
07:09 58.6 54.5 2.5 SW 6.2 29.88 86 -
07:14 58.6 54.3 2.5 WSW 6.2 29.88 86 -
07:19 58.6 54.3 2.5 SW 8.1 29.88 86 -
07:24 58.6 54.5 0.6 SW 8.1 29.88 86 -
07:29 59.0 54.9 1.9 WNW 5.0 29.88 86 -
07:34 59.2 54.9 1.9 West 6.2 29.88 86 -
07:39 59.4 55.0 1.2 SW 6.2 29.88 86 -
07:44 59.5 55.0 1.9 WSW 5.0 29.89 85 -
07:49 59.5 55.0 1.2 West 5.0 29.89 85 -
07:52 59.5 55.0   Calm 3.7 29.89 85 -
07:59 59.7 55.2   Calm   29.89 85 -
08:03 60.1 55.6   Calm   29.89 85 -
08:09 60.3 55.2   Calm   29.89 84 -
08:14 60.4 55.6   Calm   29.90 84 -
08:19 60.4 55.6   Calm   29.90 84 -
08:24 60.6 55.8   Calm 1.2 29.90 84 -
08:29 60.8 55.9 2.5 SW 5.0 29.90 84 -
08:34 61.0 55.8 2.5 SW 5.0 29.90 83 -
08:39 61.2 55.9 1.2 SW 5.0 29.90 83 -
08:44 61.2 55.9 5.0 SW 5.0 29.90 83 -
08:49 61.3 56.1 4.3 WSW 6.8 29.90 83 -
08:54 61.3 56.1 4.3 WSW 8.1 29.90 83 -
08:59 61.3 55.8 4.3 WSW 8.1 29.90 82 -
09:04 61.2 55.9 3.7 SW 8.1 29.90 83 -
09:09 61.3 56.1 1.2 South 6.2 29.90 83 -
09:14 61.5 56.5   Calm 1.9 29.90 83 -
09:19 61.7 56.1 1.9 SW 5.0 29.91 82 -
09:24 61.7 56.1 1.9 SW 5.0 29.91 82 -
09:29 62.1 56.8 1.2 SSW 5.0 29.91 83 -
09:34 62.2 56.8 4.3 WSW 8.1 29.90 83 -
09:39 62.4 56.7 3.1 WSW 8.1 29.90 81 -
09:44 63.1 57.2 1.2 WSW 5.0 29.90 81 -
09:49 63.7 57.4 4.3 WSW 6.8 29.90 81 -
09:54 63.9 57.6 3.1 SW 6.8 29.89 80 -
09:59 64.6 57.7 1.9 West 3.7 29.90 79 -
10:04 64.6 57.7 2.5 West 3.7 29.90 79 -
10:09 64.4 57.4 1.2 SW 3.7 29.90 78 -
10:14 64.8 57.7 1.2 West 3.1 29.91 78 -
10:19 64.9 57.9 1.2 WNW 3.7 29.91 78 -
10:24 65.1 58.3 1.9 NW 3.7 29.91 78 -
10:29 65.5 58.5 1.2 NW 3.7 29.91 78 -
10:34 65.5 57.6 1.9 WNW 3.7 29.91 76 -
10:39 65.1 57.4 0.6 WNW 3.1 29.91 76 -
10:44 65.3 57.6 0.6 NW 3.7 29.91 76 -
10:49 65.3 57.6 1.2 WNW 3.7 29.91 76 -
10:54 65.8 58.1 1.2 SW 3.7 29.91 76 -
10:59 66.7 58.6 1.2 SW 5.0 29.91 76 -
11:04 66.9 58.6 3.1 SW 5.0 29.91 75 -
11:09 66.7 58.1 1.2 SSW 5.0 29.91 74 -
11:14 66.7 58.3 1.2 WSW 2.5 29.91 74 -
11:19 67.3 58.6   Calm 1.9 29.91 74 -
11:24 67.3 58.6 2.5 SW 5.0 29.91 74 -
11:29 67.8 58.6 1.9 WSW 5.0 29.91 73 -
11:34 68.2 58.6 2.5 SW 5.0 29.91 72 -
11:39 68.2 58.5 0.6 WNW 5.0 29.91 71 -
11:44 68.2 58.5   Calm 1.2 29.91 71 -
11:49 68.2 58.3 0.6 NNE 2.5 29.91 71 -
11:54 68.0 58.3 1.2 North 3.7 29.91 71 -
11:59 67.6 57.9 1.2 NW 3.1 29.91 72 -
12:04 67.3 57.9 0.6 SSW 2.5 29.91 72 -
12:09 67.6 58.5 0.6 WNW 2.5 29.91 73 -
12:14 68.2 58.5   Calm 1.9 29.91 72 -
12:19 68.4 58.6   Calm 1.2 29.91 71 -
12:24 68.4 58.6 0.6 SW 1.2 29.91 71 -
12:29 68.5 58.5   Calm 1.2 29.91 70 -
12:34 69.1 58.8 0.6 SW 3.7 29.91 70 -
12:39 69.8 59.5 3.1 SW 5.0 29.91 71 -
12:44 70.2 59.9 2.5 SSW 6.8 29.91 70 -
12:49 71.1 60.6 1.9 SSW 6.8 29.91 70 -
12:54 71.6 60.3 1.9 SSE 5.0 29.91 68 -
12:59 72.0 60.3 1.9 ENE 5.0 29.91 67 -
13:04 72.0 59.9 3.7 ENE 6.2 29.92 70 -
13:09 69.6 59.2 3.1 ENE 6.2 29.92 72 -
13:14 68.2 58.8 2.5 ENE 6.2 29.92 73 -
13:19 67.1 58.3 2.5 ENE 5.0 29.92 75 -
13:24 66.4 58.5 2.5 NE 5.0 29.93 76 -
13:29 66.0 58.8 1.9 ENE 3.7 29.93 79 6.30
13:34 65.5 59.2   Calm 3.1 29.93 82 9.42
13:39 64.8 59.2 0.6 WSW 1.2 29.93 84 13.40
13:44 64.2 59.4   Calm 1.2 29.93 85 15.01
13:49 63.9 59.9   Calm   29.92 87 15.01
13:54 63.9 59.9   Calm   29.92 87 15.01
13:59 64.0 60.4   Calm   29.93 88 15.01
14:04 64.0 60.4   Calm   29.93 88 15.72
14:09 63.7 60.1   Calm   29.93 88 15.72
14:14 63.5 60.1 1.2 WSW 3.1 29.93 89 15.72
14:19 63.5 60.3 1.2 WSW 3.7 29.93 89 15.72
14:24 63.7 60.6   Calm 1.2 29.93 90 15.72
14:29 63.9 60.8   Calm   29.93 90 13.40
14:34 64.0 61.2   Calm   29.93 90 9.42
14:39 64.4 61.3   Calm   29.93 90 5.52
14:44 65.5 62.4   Calm   29.93 90 2.40
14:49 65.8 62.4 2.5 SW 6.8 29.93 90 0.79
14:54 65.8 61.9 1.9 WSW 6.8 29.93 87 0.79
14:59 66.4 62.1 1.9 SW 3.7 29.93 86 0.79
15:04 66.4 62.1 2.5 SW 3.7 29.93 86 0.79
15:09 65.8 61.2 2.5 WSW 3.7 29.93 85 -
15:14 65.3 60.6 1.9 SW 3.7 29.93 85 -
15:19 65.1 61.0 1.9 WSW 3.7 29.93 86 -
15:24 65.5 61.2 1.9 SW 3.7 29.93 86 -
15:29 65.7 61.7 2.5 SW 5.0 29.93 87 -
15:34 65.7 61.5 3.7 WSW 6.2 29.93 87 -
15:39 65.7 61.3 2.5 SW 6.2 29.94 86 -
15:44 66.0 61.7 2.5 SSW 3.7 29.94 86 -
15:49 65.8 61.5 1.9 SSW 3.7 29.94 86 -
15:54 66.0 61.7   Calm 1.9 29.94 86 -
15:59 66.0 61.7 1.2 WSW 3.7 29.94 86 -
16:04 65.8 61.5 1.9 SW 5.0 29.93 86 -
16:09 65.8 61.5 2.5 SE 5.0 29.93 86 -
16:14 65.8 61.5 0.6 SE 5.0 29.93 86 -
16:19 65.8 61.5 0.6 SW 1.9 29.94 86 -
16:24 66.0 61.5   Calm 1.2 29.94 85 -
16:29 66.4 61.7 0.6 WSW 1.2 29.93 85 -
16:34 66.4 61.3 0.6 SW 3.1 29.93 84 -
16:39 66.7 61.3 1.2 SW 3.7 29.93 83 -
16:44 66.9 61.3 0.6 SSW 2.5 29.93 82 -
16:49 67.3 61.3   Calm 1.9 29.93 82 -
16:54 68.2 61.7   Calm   29.93 80 -
16:59 68.5 61.9   Calm   29.93 80 -
17:04 69.8 62.1   Calm   29.94 77 -
17:09 70.0 61.3   Calm   29.94 75 -
17:14 70.2 60.4   Calm   29.94 72 -
17:19 70.9 61.2   Calm   29.94 72 -
17:24 70.9 60.1 1.2 ENE 3.7 29.94 69 -
17:29 70.7 60.1 1.2 ENE 3.7 29.94 70 -
17:34 70.3 60.4   Calm 3.1 29.94 71 -
17:39 70.3 60.1 1.9 ENE 2.5 29.94 70 -
17:44 69.4 58.8 0.6 ENE 1.9 29.94 69 -
17:49 69.1 59.2   Calm 1.2 29.94 71 -
17:54 69.3 59.5   Calm 1.2 29.94 71 -
17:59 69.3 59.5 0.6 ENE 2.5 29.94 71 -
18:04 69.1 58.5 0.6 North 2.5 29.94 69 -
18:09 68.9 58.3   Calm 1.9 29.94 69 -
18:14 68.7 58.5   Calm 1.2 29.94 70 -
18:19 68.5 58.5   Calm 1.2 29.94 70 -
18:24 68.5 58.6   Calm   29.94 71 -
18:29 68.5 58.5   Calm   29.95 70 -
18:34 68.7 58.8   Calm   29.95 71 -
18:39 68.7 58.8   Calm   29.95 71 -
18:44 68.7 59.0   Calm   29.96 71 -
18:49 68.7 58.8   Calm   29.96 71 -
18:54 68.5 58.5   Calm   29.96 70 -
18:59 68.4 58.5   Calm   29.96 71 -
19:04 68.4 58.5   Calm   29.96 71 -
19:09 68.2 58.5   Calm   29.96 71 -
19:14 68.4 58.8   Calm   29.96 72 -
19:19 68.2 58.6   Calm   29.96 72 -
19:24 68.2 58.6   Calm   29.96 72 -
19:29 68.2 58.6   Calm   29.96 72 -
19:34 68.4 58.8   Calm   29.96 72 -
19:39 68.4 59.0   Calm   29.97 72 -
19:44 68.4 58.5   Calm   29.97 71 -
19:45 68.2 58.5   Calm   29.96 71 -

Download your copy of this data-set  from WeatherUnderground

Our weather-data as stored at Weather Underground